[[{"header":{"parameterUnit":"m.s-1","parameterCategory":1,"la1":30.2992,"la2":30.254,"lo1":-89.0895,"lo2":-89.0443,"dy":0.0025,"dx":0.0025,"nx":19,"ny":19,"refTime":"2026-04-05T09:00:00:Z","depth":0,"parameterNumber":2,"parameterNumberName":"U-component_of_WINDS"},"data":[0,0,0,-0.857,-0.8574,-0.8747,-0.8747,-0.8964,-0.8966,0,0,0,0,0,0,0,0,0,0,0,-0.8514,-0.8516,-0.857,-0.8574,-0.8747,-0.8747,-0.8964,-0.8966,0,0,0,0,0,0,0,0,0,0,0,-0.8514,-0.8515,-0.8517,-0.8574,-0.8746,-0.8747,-0.8964,-0.8835,0,0,0,0,0,0,0,0,0,0,-0.8668,-0.8612,-0.8515,-0.8517,-0.8575,-0.8746,-0.8747,-0.8829,-0.8843,-0.8884,0,-0.8917,0,-0.8945,-0.898,-0.8981,0,0,0,-0.8578,-0.86,-0.865,-0.8517,-0.8577,-0.8746,-0.867,-0.8837,-0.8853,-0.8902,-0.892,-0.8928,-0.8948,-0.8982,-0.8983,-0.9199,-0.92,0,0,-0.8568,-0.8544,-0.8639,-0.866,-0.8631,-0.8664,-0.8675,-0.8847,-0.8865,-0.8921,-0.8933,-0.8952,-0.8983,-0.8985,-0.9198,-0.9199,0,0,0,-0.8538,-0.8537,-0.8583,-0.8651,-0.8683,-0.8669,-0.8682,-0.8858,-0.8875,-0.8936,-0.8954,-0.8984,-0.8987,-0.9197,-0.9198,-0.9216,0,0,0,-0.8533,-0.8519,-0.8579,-0.8566,-0.8679,-0.8772,-0.8688,-0.8863,-0.8883,-0.8953,-0.8984,-0.8989,-0.9196,-0.9198,-0.9214,-0.923,0,0,0,-0.8505,-0.8516,-0.8539,-0.8564,-0.8637,-0.877,-0.8797,-0.8868,-0.8894,-0.8981,-0.899,-0.9196,-0.9198,-0.9212,-0.9226,-0.9281,0,0,0,-0.8468,-0.8553,-0.8539,-0.8641,-0.8635,-0.8778,-0.8796,-0.8904,-0.898,-0.8986,-0.9196,-0.9198,-0.9211,-0.9224,-0.9278,-0.9324,-0.934,0,0,-0.8562,-0.8564,-0.8625,-0.8618,-0.8756,-0.8753,-0.8895,-0.899,-0.9021,-0.9138,-0.9144,-0.9214,-0.9226,-0.928,-0.9433,-0.9445,0,0,0,-0.8647,-0.8691,-0.8733,-0.8804,-0.8876,-0.8941,-0.9015,-0.905,-0.915,-0.9075,-0.9248,-0.9256,-0.9289,-0.9312,-0.9323,-0.9354,-0.9207,-0.9207,-0.9207,-0.8747,-0.878,-0.8885,-0.894,-0.9008,-0.9083,-0.9143,-0.9203,-0.9218,-0.9258,-0.9294,-0.9382,-0.9408,-0.9416,-0.9448,-0.9318,-0.9318,-0.9319,-0.9319,-0.8889,-0.8959,-0.8974,-0.9082,-0.9117,-0.9209,-0.9284,-0.9292,-0.9384,-0.9358,-0.9389,-0.936,-0.9429,-0.9459,-0.932,-0.932,-0.932,-0.932,-0.9319,-0.8961,-0.9001,-0.9039,-0.9144,-0.9222,-0.9274,-0.9361,-0.939,-0.9418,-0.9448,-0.9491,-0.9491,-0.9496,-0.9465,-0.9466,-0.9466,-0.9466,-0.9466,-0.9467,-0.9022,-0.9065,-0.9134,-0.9216,-0.9265,-0.9333,-0.9408,-0.9458,-0.9521,-0.9536,-0.9536,-0.9549,-0.9427,-0.9398,-0.9472,-0.9471,-0.947,-0.947,-0.9469,-0.916,-0.9133,-0.9239,-0.9288,-0.9387,-0.9463,-0.9497,-0.9596,-0.9641,-0.9683,-0.9688,-0.9592,-0.9598,-0.9589,-0.9566,-0.9678,-0.9678,-0.9678,-0.9678,-0.9223,-0.9226,-0.9342,-0.9418,-0.9496,-0.9537,-0.9659,-0.9717,-0.9774,-0.9804,-0.9791,-0.9761,-0.9751,-0.9762,-0.975,-0.9729,-0.988,-0.9881,-0.9881,-0.9311,-0.9323,-0.9421,-0.9473,-0.9552,-0.962,-0.9736,-0.9824,-0.9883,-0.989,-0.9829,-0.9821,-0.9772,-0.9754,-0.9764,-0.9744,-0.9705,0,0]},{"header":{"parameterUnit":"m.s-1","parameterCategory":1,"la1":30.2992,"la2":30.254,"lo1":-89.0895,"lo2":-89.0443,"dy":0.0025,"dx":0.0025,"nx":19,"ny":19,"refTime":"2026-04-05T09:00:00:Z","depth":0,"parameterNumber":3,"parameterNumberName":"V-component_of_WINDS"},"data":[0,0,0,-6.0026,-6.0031,-6.0219,-6.0219,-6.0473,-6.0475,0,0,0,0,0,0,0,0,0,0,0,-5.9981,-5.9983,-6.0026,-6.0031,-6.0219,-6.0219,-6.0472,-6.0475,0,0,0,0,0,0,0,0,0,0,0,-5.998,-5.9983,-5.9985,-6.0032,-6.0218,-6.0219,-6.0472,-6.0325,0,0,0,0,0,0,0,0,0,0,-6.014,-6.0109,-5.9982,-5.9985,-6.0033,-6.0218,-6.0219,-6.0317,-6.0334,-6.0394,0,-6.0452,0,-6.0468,-6.0493,-6.0494,0,0,0,-6.0023,-6.0095,-6.0137,-5.9986,-6.0035,-6.0218,-6.0132,-6.0326,-6.0345,-6.0416,-6.0456,-6.0465,-6.0472,-6.0495,-6.0496,-6.0878,-6.088,0,0,-6.0012,-6.002,-6.0124,-6.0149,-6.0124,-6.0126,-6.0137,-6.0337,-6.0381,-6.0457,-6.0471,-6.0477,-6.0497,-6.0499,-6.0876,-6.0879,0,0,0,-5.9988,-6.0013,-6.0049,-6.0139,-6.0172,-6.0131,-6.0145,-6.0372,-6.0383,-6.0473,-6.048,-6.0498,-6.0501,-6.0874,-6.0877,-6.0995,0,0,0,-5.9981,-5.9999,-6.0045,-6.0052,-6.0169,-6.0275,-6.0175,-6.0369,-6.0391,-6.0478,-6.0498,-6.0504,-6.0871,-6.0876,-6.0986,-6.1049,0,0,0,-5.9965,-5.9997,-6.0028,-6.0052,-6.0133,-6.0271,-6.0294,-6.0374,-6.0396,-6.0494,-6.0505,-6.087,-6.0875,-6.0979,-6.1037,-6.1154,0,0,0,-5.995,-6.0128,-6.003,-6.0231,-6.0132,-6.0343,-6.0293,-6.0449,-6.0547,-6.05,-6.0872,-6.0877,-6.0977,-6.1029,-6.1146,-6.1255,-6.13,0,0,-6.0179,-6.0156,-6.0274,-6.0192,-6.0423,-6.0314,-6.0562,-6.0643,-6.0643,-6.0799,-6.0808,-6.0989,-6.1036,-6.1152,-6.1552,-6.1588,0,0,0,-6.0349,-6.0434,-6.0494,-6.059,-6.0657,-6.0721,-6.0763,-6.0793,-6.0926,-6.0726,-6.1062,-6.1089,-6.1157,-6.1209,-6.124,-6.1298,-6.0901,-6.09,-6.09,-6.0686,-6.0679,-6.0874,-6.089,-6.0983,-6.1026,-6.11,-6.1148,-6.1111,-6.1191,-6.1238,-6.1482,-6.1542,-6.1566,-6.1626,-6.1293,-6.1294,-6.1294,-6.1294,-6.1022,-6.1142,-6.1092,-6.1264,-6.1255,-6.1397,-6.1445,-6.1415,-6.1546,-6.1445,-6.1504,-6.1397,-6.1606,-6.1659,-6.1303,-6.1302,-6.1301,-6.13,-6.1299,-6.1243,-6.13,-6.1335,-6.1473,-6.158,-6.1588,-6.1717,-6.1703,-6.169,-6.1749,-6.1797,-6.1795,-6.1793,-6.1773,-6.1773,-6.1774,-6.1775,-6.1776,-6.1776,-6.146,-6.1495,-6.1607,-6.1695,-6.1755,-6.1832,-6.1877,-6.1934,-6.1994,-6.1974,-6.1974,-6.1931,-6.1628,-6.1553,-6.1789,-6.1787,-6.1785,-6.1784,-6.1783,-6.1806,-6.1726,-6.1899,-6.196,-6.2062,-6.2169,-6.2149,-6.2268,-6.2313,-6.2378,-6.2321,-6.2099,-6.2074,-6.2049,-6.1987,-6.2322,-6.2322,-6.2322,-6.2322,-6.1994,-6.198,-6.2155,-6.2252,-6.2346,-6.2346,-6.254,-6.2576,-6.26,-6.2628,-6.2577,-6.2492,-6.2468,-6.2457,-6.2423,-6.2365,-6.2789,-6.279,-6.279,-6.2208,-6.2203,-6.2372,-6.2397,-6.2476,-6.2543,-6.2726,-6.2838,-6.2848,-6.2809,-6.2649,-6.2629,-6.2493,-6.2449,-6.2408,-6.2356,-6.2249,0,0]}]]